Location: Unspecified
(0.0000°N, 0.0000°E)
Time: 10:52:33
(UTC+00:00)

ISS - Pass Details

Date: 22 March 2019
Orbit: 408 x 411 km, 51.6° (Epoch: 24 March)

Event Time Altitude Azimuth Distance (km) Brightness Sun altitude
Exits shadow 05:15:22 21° 293° (WNW) 981 -2.4 -12.9°
Maximum altitude 05:17:09 39° 235° (SW) 620 -3.3 -12.5°
Drops below altitude 10° 05:20:16 10° 163° (SSE) 1,468 -0.8 -11.7°
Sets 05:22:26 0° 156° (SSE) 2,331 0.4 -11.2°
